Temp
-12 -12 -12 -12 -12 -12 -12 -12 -12 -12 -12 -12 -12 -12 -12 -12 -12 -12 -12 -12 -12 -12 -12 -12 -12 -12 -13 -13 -13 -13 -13 -13 -13 -13 -13 -13 -13 -13 -13 -13 -13 -13
-12 -12 -12 -12 -12 -12 -12 -12 -12 -12 -12 -12 -12 -12 -12 -12 -12 -12 -12 -12 -12 -12 -13 -13 -13 -13 -13 -13 -13 -13 -13 -13 -13 -13 -13 -13 -13 -13 -13 -13 -13 -13
-12 -12 -12 -12 -12 -12 -12 -12 -12 -12 -12 -12 -12 -12 -12 -12 -12 -12 -12 -13 -13 -13 -13 -13 -13 -13 -13 -13 -13 -13 -13 -13 -13 -13 -13 -13 -13 -13 -13 -13 -13 -13
-12 -12 -12 -12 -12 -12 -12 -12 -12 -12 -12 -12 -12 -12 -12 -12 -13 -13 -13 -13 -13 -13 -13 -13 -13 -13 -13 -14 -14 -14 -14 -14 -14 -14 -13 -13 -13 -13 -13 -13 -13 -14
-12 -12 -12 -12 -12 -12 -12 -12 -12 -12 -12 -12 -12 -13 -13 -13 -13 -13 -13 -13 -13 -13 -13 -13 -13 -14 -14 -14 -14 -14 -14 -14 -14 -14 -14 -14 -14 -14 -14 -14 -14 -14
-12 -12 -12 -12 -12 -12 -12 -12 -12 -12 -12 -13 -13 -13 -13 -13 -13 -13 -13 -13 -13 -13 -13 -13 -14 -14 -14 -14 -14 -14 -14 -14 -14 -14 -14 -14 -14 -15 -15 -15 -14 -14
-12 -12 -12 -12 -12 -12 -12 -12 -12 -12 -13 -13 -13 -13 -13 -13 -13 -13 -13 -13 -13 -13 -13 -14 -14 -14 -14 -14 -14 -14 -14 -14 -14 -15 -15 -15 -15 -15 -15 -15 -15 -15
-13 -13 -13 -12 -12 -12 -12 -13 -13 -13 -13 -13 -13 -13 -13 -13 -13 -13 -13 -13 -13 -13 -14 -14 -14 -14 -14 -14 -14 -15 -15 -15 -15 -15 -15 -15 -15 -16 -16 -16 -15 -15
-13 -13 -13 -13 -13 -13 -13 -13 -13 -13 -13 -13 -13 -13 -13 -13 -13 -13 -13 -13 -13 -14 -14 -14 -14 -14 -15 -15 -15 -15 -15 -15 -15 -15 -15 -16 -16 -16 -16 -16 -16 -15
-12 -13 -13 -13 -13 -13 -13 -13 -13 -13 -13 -13 -13 -13 -13 -13 -13 -14 -14 -14 -14 -14 -14 -14 -14 -15 -15 -15 -15 -15 -15 -15 -16 -16 -16 -16 -16 -16 -16 -16 -16 -16
-12 -12 -12 -12 -12 -12 -13 -13 -13 -13 -13 -13 -13 -14 -14 -14 -14 -14 -14 -14 -14 -14 -14 -14 -14 -14 -15 -15 -15 -16 -16 -16 -16 -16 -16 -16 -16 -16 -16 -16 -16 -16
-13 -13 -13 -13 -13 -13 -13 -13 -13 -13 -14 -14 -14 -14 -14 -14 -14 -14 -14 -14 -14 -14 -14 -14 -14 -15 -15 -15 -16 -16 -16 -16 -16 -16 -16 -16 -16 -16 -16 -16 -16 -16
-13 -13 -13 -13 -13 -13 -13 -14 -14 -14 -14 -14 -14 -14 -14 -14 -14 -14 -14 -14 -15 -15 -15 -15 -15 -15 -15 -15 -16 -16 -16 -16 -16 -16 -16 -16 -16 -16 -16 -16 -16 -16
-14 -14 -14 -14 -14 -14 -14 -14 -14 -14 -14 -15 -15 -15 -15 -15 -15 -15 -15 -15 -15 -15 -15 -15 -15 -15 -16 -16 -16 -16 -16 -16 -17 -16 -16 -16 -16 -16 -16 -16 -16 -16
-14 -14 -14 -14 -14 -15 -15 -15 -15 -15 -15 -15 -15 -15 -15 -15 -15 -15 -15 -15 -15 -15 -15 -16 -16 -16 -16 -16 -16 -16 -17 -17 -17 -16 -16 -16 -16 -16 -16 -16 -16 -17
-15 -15 -15 -15 -15 -15 -15 -15 -15 -15 -15 -15 -15 -15 -15 -15 -16 -16 -16 -16 -16 -16 -16 -16 -16 -16 -16 -17 -17 -17 -17 -17 -17 -16 -16 -16 -16 -16 -16 -16 -16 -17
-15 -15 -15 -15 -15 -15 -15 -15 -15 -16 -16 -16 -16 -16 -16 -16 -16 -16 -16 -16 -16 -16 -17 -17 -17 -17 -17 -17 -17 -17 -17 -17 -17 -16 -16 -16 -16 -16 -16 -16 -17 -17
-15 -15 -16 -16 -16 -16 -16 -16 -16 -16 -16 -16 -16 -16 -16 -16 -16 -16 -17 -17 -17 -17 -17 -17 -17 -17 -17 -17 -17 -17 -17 -17 -17 -17 -17 -17 -17 -17 -17 -17 -17 -17
-16 -16 -16 -16 -16 -16 -16 -16 -16 -16 -16 -16 -16 -16 -16 -16 -17 -17 -17 -17 -17 -17 -17 -17 -17 -17 -17 -17 -17 -17 -17 -17 -17 -17 -17 -17 -17 -17 -17 -17 -17 -18
-16 -16 -17 -17 -17 -17 -16 -16 -16 -16 -16 -16 -16 -16 -16 -17 -17 -17 -17 -17 -17 -17 -17 -17 -17 -17 -17 -17 -17 -17 -17 -17 -17 -17 -17 -17 -17 -17 -17 -18 -18 -18
-17 -17 -17 -17 -17 -17 -16 -16 -16 -16 -16 -16 -16 -16 -16 -16 -17 -17 -17 -17 -17 -17 -17 -17 -17 -17 -17 -17 -17 -17 -17 -17 -17 -17 -17 -17 -18 -18 -18 -18 -18 -19
-17 -17 -17 -17 -17 -17 -16 -16 -16 -16 -16 -16 -16 -16 -16 -16 -16 -16 -16 -17 -17 -17 -17 -17 -17 -17 -17 -17 -18 -18 -18 -18 -18 -18 -18 -18 -18 -19 -19 -19 -19 -19
-17 -17 -17 -17 -17 -17 -16 -16 -16 -16 -16 -16 -16 -16 -16 -16 -16 -16 -16 -16 -17 -17 -17 -17 -17 -17 -18 -18 -18 -18 -18 -18 -18 -18 -19 -19 -19 -19 -19 -19 -19 -19
-17 -17 -17 -17 -17 -17 -16 -16 -16 -16 -16 -16 -16 -16 -16 -16 -16 -16 -16 -16 -16 -16 -16 -17 -17 -17 -18 -18 -18 -19 -19 -19 -19 -19 -19 -19 -20 -20 -20 -20 -20 -20
-17 -17 -17 -17 -17 -16 -16 -16 -16 -16 -16 -16 -16 -16 -16 -16 -16 -16 -16 -16 -16 -17 -17 -17 -17 -18 -18 -18 -19 -19 -19 -19 -19 -19 -19 -20 -20 -20 -20 -20 -20 -20
-17 -17 -17 -17 -17 -16 -16 -16 -16 -16 -16 -16 -16 -16 -16 -16 -16 -16 -16 -17 -17 -17 -18 -18 -18 -19 -19 -19 -19 -19 -19 -20 -20 -20 -20 -20 -20 -20 -20 -20 -21 -21
Height
5840 5840 5839 5838 5836 5835 5834 5833 5832 5831 5829 5827 5826 5825 5823 5821 5819 5818 5817 5815 5813 5811 5809 5807 5805 5803 5801 5799 5796 5794 5792 5789 5787 5784 5782 5781 5778 5775 5772 5770 5768 5766
5835 5834 5833 5832 5830 5829 5829 5827 5826 5825 5823 5822 5820 5819 5817 5815 5814 5812 5811 5809 5807 5805 5803 5801 5799 5797 5795 5792 5790 5788 5786 5783 5781 5779 5777 5775 5772 5770 5767 5764 5761 5759
5829 5828 5827 5826 5825 5824 5823 5822 5821 5819 5818 5816 5814 5813 5811 5809 5808 5806 5805 5803 5801 5799 5796 5794 5792 5790 5788 5786 5784 5782 5779 5777 5775 5772 5771 5769 5766 5763 5760 5757 5754 5752
5824 5823 5822 5821 5820 5819 5818 5816 5815 5813 5812 5810 5808 5807 5805 5803 5802 5800 5798 5797 5795 5792 5790 5788 5786 5784 5781 5779 5778 5776 5773 5770 5768 5766 5764 5762 5759 5756 5754 5750 5748 5745
5819 5818 5817 5816 5814 5813 5812 5810 5809 5807 5806 5804 5802 5800 5799 5797 5795 5793 5792 5790 5788 5786 5783 5781 5779 5777 5775 5773 5771 5769 5766 5763 5761 5758 5757 5755 5752 5749 5746 5743 5741 5739
5813 5812 5811 5810 5808 5807 5806 5804 5803 5801 5800 5798 5796 5794 5792 5791 5789 5787 5785 5783 5781 5779 5776 5774 5772 5770 5768 5766 5764 5762 5759 5756 5754 5751 5749 5748 5744 5742 5739 5736 5734 5732
5807 5806 5805 5803 5802 5801 5799 5797 5796 5794 5793 5791 5789 5787 5786 5784 5782 5780 5778 5776 5774 5772 5769 5767 5765 5763 5760 5758 5757 5754 5752 5749 5747 5744 5742 5740 5738 5735 5732 5729 5728 5727
5800 5799 5797 5796 5794 5793 5792 5790 5789 5787 5786 5784 5782 5780 5779 5777 5775 5773 5771 5769 5767 5765 5762 5760 5758 5756 5753 5751 5749 5747 5744 5742 5740 5737 5736 5734 5732 5730 5727 5724 5722 5721
5793 5792 5790 5789 5787 5786 5785 5784 5782 5781 5779 5778 5776 5773 5771 5769 5767 5766 5764 5762 5760 5758 5755 5753 5751 5748 5746 5744 5741 5739 5737 5735 5733 5731 5730 5728 5726 5724 5721 5718 5717 5715
5787 5786 5784 5782 5781 5780 5778 5777 5775 5774 5772 5770 5768 5766 5763 5762 5760 5758 5757 5755 5753 5751 5748 5746 5743 5741 5739 5736 5734 5732 5730 5729 5727 5725 5724 5722 5720 5718 5716 5713 5711 5709
5780 5779 5778 5776 5774 5773 5771 5769 5768 5766 5764 5763 5761 5759 5756 5755 5753 5751 5749 5748 5745 5743 5741 5739 5736 5734 5732 5729 5727 5725 5723 5722 5721 5719 5717 5716 5714 5712 5710 5707 5705 5703
5773 5772 5770 5769 5767 5765 5763 5762 5760 5759 5757 5755 5754 5752 5749 5747 5745 5744 5742 5740 5738 5736 5734 5732 5729 5727 5725 5722 5720 5717 5716 5715 5714 5712 5711 5709 5708 5706 5703 5701 5698 5696
5765 5764 5762 5761 5759 5757 5756 5754 5752 5751 5749 5747 5746 5744 5742 5740 5738 5736 5734 5733 5731 5729 5727 5725 5723 5720 5717 5715 5713 5711 5709 5708 5707 5705 5704 5703 5701 5699 5696 5694 5692 5689
5757 5756 5755 5753 5752 5750 5748 5747 5745 5743 5741 5740 5738 5737 5735 5734 5732 5730 5728 5726 5724 5722 5720 5718 5716 5713 5710 5708 5706 5704 5702 5701 5700 5698 5697 5695 5693 5691 5689 5687 5684 5682
5749 5748 5747 5745 5744 5742 5741 5739 5738 5736 5734 5733 5731 5730 5728 5726 5725 5723 5721 5719 5717 5715 5713 5711 5709 5706 5703 5700 5699 5697 5695 5694 5693 5691 5689 5687 5686 5683 5681 5678 5676 5673
5740 5739 5738 5737 5735 5734 5733 5731 5730 5728 5727 5725 5724 5722 5721 5719 5717 5715 5713 5712 5710 5708 5706 5704 5701 5698 5696 5693 5691 5689 5688 5687 5685 5683 5681 5679 5677 5675 5673 5670 5667 5664
5732 5730 5729 5728 5727 5726 5724 5723 5722 5720 5719 5718 5716 5714 5713 5711 5709 5708 5706 5704 5702 5701 5699 5696 5694 5691 5688 5686 5684 5681 5680 5678 5677 5675 5673 5671 5669 5666 5664 5661 5658 5655
5724 5722 5721 5720 5719 5717 5716 5715 5713 5712 5711 5710 5708 5706 5705 5703 5701 5699 5697 5695 5694 5693 5691 5689 5686 5682 5679 5677 5675 5673 5670 5669 5668 5666 5664 5662 5659 5657 5654 5651 5648 5646
5716 5715 5713 5712 5711 5709 5708 5707 5705 5704 5702 5701 5700 5698 5696 5695 5692 5691 5689 5687 5685 5684 5682 5680 5677 5673 5670 5668 5665 5663 5660 5658 5657 5656 5654 5652 5649 5646 5643 5640 5637 5634
5708 5706 5705 5704 5702 5701 5700 5698 5697 5695 5693 5692 5691 5689 5687 5686 5684 5682 5680 5677 5675 5674 5673 5671 5667 5663 5660 5657 5655 5652 5649 5647 5646 5644 5642 5640 5638 5635 5632 5629 5626 5623
5699 5698 5696 5695 5694 5692 5691 5689 5688 5686 5684 5683 5682 5680 5678 5677 5675 5673 5671 5668 5665 5663 5662 5661 5656 5652 5649 5647 5644 5641 5638 5636 5634 5633 5631 5629 5627 5623 5620 5617 5614 5612
5690 5689 5687 5686 5685 5683 5682 5680 5678 5676 5674 5673 5672 5670 5668 5666 5664 5662 5660 5658 5655 5652 5650 5650 5646 5641 5637 5635 5632 5629 5627 5625 5623 5621 5619 5618 5616 5612 5609 5607 5604 5601
5681 5680 5679 5677 5675 5674 5673 5671 5669 5666 5664 5662 5662 5661 5659 5656 5653 5652 5649 5646 5644 5641 5639 5638 5636 5630 5626 5624 5620 5617 5615 5613 5611 5609 5608 5606 5604 5602 5599 5596 5593 5590
5671 5670 5669 5668 5666 5664 5663 5662 5659 5657 5654 5652 5651 5650 5649 5646 5643 5641 5639 5635 5633 5630 5627 5626 5624 5620 5614 5612 5609 5605 5603 5601 5599 5598 5597 5595 5592 5590 5587 5585 5582 5579
5661 5660 5658 5657 5656 5655 5653 5651 5649 5647 5645 5642 5640 5639 5638 5636 5633 5631 5629 5626 5621 5618 5615 5612 5611 5608 5603 5599 5597 5594 5591 5589 5587 5585 5584 5582 5580 5578 5576 5573 5570 5567
5650 5649 5647 5645 5644 5644 5643 5640 5638 5636 5634 5632 5630 5627 5626 5625 5622 5619 5618 5617 5612 5608 5605 5602 5599 5597 5593 5589 5586 5583 5579 5576 5574 5572 5571 5569 5567 5566 5564 5562 5559 5556
Wind_Speed
47 47 48 48 48 49 49 49 50 50 51 52 53 53 54 54 55 55 54 54 54 53 53 53 53 53 53 53 52 52 53 53 54 56 57 58 59 61 61 61 61 59
49 49 50 50 51 51 52 52 53 53 54 55 55 56 56 56 56 56 55 55 55 54 54 54 54 54 53 53 53 53 54 55 56 57 58 59 60 61 62 63 63 60
51 51 52 53 53 54 54 54 55 55 56 57 57 56 56 56 56 56 56 55 54 54 54 54 54 54 54 54 54 54 55 56 57 58 59 60 61 62 62 63 63 60
52 53 54 54 55 55 55 56 56 56 56 57 57 56 56 56 56 56 55 54 54 54 54 54 54 54 54 54 55 55 56 57 58 59 60 61 62 62 62 62 61 58
53 54 54 55 55 55 55 55 55 56 56 56 56 56 56 56 56 56 56 55 55 55 55 55 55 55 55 55 56 56 57 58 59 60 61 61 62 62 61 60 59 57
53 53 54 54 54 54 55 55 56 56 56 56 56 57 57 57 58 58 57 57 57 57 56 56 56 56 56 56 57 57 58 59 60 61 62 61 60 59 58 57 57 56
53 53 54 54 55 55 56 56 57 58 58 58 58 58 59 59 59 59 59 58 58 57 57 57 57 57 57 58 58 59 60 61 61 61 61 59 57 56 55 56 56 55
55 55 56 57 58 58 59 59 60 60 60 60 60 60 61 60 60 60 60 59 59 58 58 58 58 58 58 59 59 60 60 61 61 60 58 56 54 54 55 56 56 55
57 58 59 60 61 61 62 62 62 62 62 62 62 62 62 61 60 60 60 60 59 59 59 59 59 59 60 60 61 61 61 60 59 57 55 54 53 53 54 55 55 55
60 61 62 62 63 63 64 63 63 63 63 62 62 61 61 61 60 60 60 60 60 60 60 60 61 61 61 61 61 60 59 58 56 54 53 52 52 52 53 54 54 54
63 63 64 64 65 65 64 64 63 62 62 61 61 60 60 60 60 60 60 60 61 61 61 62 62 62 62 61 60 58 57 55 53 52 51 51 51 51 52 53 54 55
64 64 64 64 64 64 64 63 62 62 62 61 61 60 60 60 60 60 60 59 60 60 60 60 60 60 60 59 57 56 54 53 52 51 51 51 51 52 53 54 55 55
64 64 64 64 64 64 63 63 62 61 60 60 59 58 57 57 57 57 57 57 57 57 57 57 58 57 57 56 55 54 53 53 53 53 54 54 55 55 56 56 55 56
64 63 63 63 62 62 61 60 58 57 57 56 56 55 55 55 55 56 56 56 56 56 57 57 57 57 57 56 55 54 54 54 54 55 57 58 58 59 58 57 57 57
62 62 61 60 59 58 57 56 55 55 55 56 56 56 56 56 56 56 56 57 57 57 58 58 58 57 57 57 56 55 56 56 57 58 60 60 61 61 60 60 60 61
61 60 59 58 57 56 56 56 56 56 56 56 56 55 55 55 56 56 56 56 56 56 57 57 57 57 57 57 58 58 59 60 61 62 63 64 64 63 63 64 65 66
61 60 59 58 57 57 56 55 55 55 54 54 53 53 53 53 53 54 54 54 54 54 55 55 56 57 58 59 60 61 62 63 64 65 66 66 66 67 68 69 70 71
60 59 58 58 57 56 55 54 54 54 54 53 53 53 53 53 54 54 54 55 55 55 56 57 58 60 61 63 64 65 66 67 67 67 68 69 70 71 72 74 75 75
59 58 57 56 55 55 55 56 56 57 57 57 57 57 58 58 58 58 59 59 60 60 61 61 63 64 66 67 68 70 71 72 72 72 73 74 75 76 77 78 78 78
59 58 57 57 57 58 59 60 60 61 61 62 62 62 63 63 64 64 65 65 66 66 67 67 69 70 71 72 74 75 76 77 77 78 79 79 80 80 81 81 80 80
60 60 60 61 62 63 63 64 65 65 66 66 66 67 67 68 68 69 70 71 71 72 72 73 74 75 76 77 78 79 80 81 82 82 82 82 82 81 81 80 79 79
62 63 64 65 66 67 67 68 69 69 70 71 71 71 72 73 74 74 75 75 76 77 77 77 78 79 80 81 82 82 82 83 83 82 82 81 80 79 79 79 79 79
66 67 68 69 70 71 71 72 72 73 74 75 75 76 77 78 78 79 79 80 80 81 81 81 81 82 82 82 82 82 82 82 82 81 81 80 79 78 78 78 78 78
71 72 72 73 74 74 74 75 76 77 79 80 80 80 81 82 83 83 84 85 85 85 86 85 84 84 83 83 82 82 82 82 82 82 82 81 80 79 79 79 78 77
75 76 77 77 77 78 79 80 81 82 83 84 85 85 85 86 87 87 87 88 88 88 88 88 88 87 86 86 86 86 86 86 86 85 84 83 82 82 81 80 79 78
79 80 81 82 83 83 84 85 87 87 88 88 89 89 89 89 89 90 90 89 89 89 88 88 88 87 87 87 87 87 88 88 87 87 86 85 84 83 82 81 79 78
Wind_Direction
283 284 285 286 287 287 288 289 289 289 289 289 290 290 291 292 292 293 293 293 294 294 294 294 295 296 296 297 297 297 297 297 297 297 299 300 301 302 304 305 305 304
284 285 286 286 287 288 288 288 289 289 289 290 291 291 292 292 293 293 293 294 294 294 295 295 296 296 297 297 297 297 296 296 296 296 298 299 300 302 303 303 302 302
284 285 285 286 286 287 287 288 288 289 289 290 290 291 291 292 292 293 293 294 295 295 296 296 297 296 296 296 296 296 295 295 295 296 297 299 300 301 301 300 300 300
282 283 283 284 285 286 287 287 288 288 289 289 290 290 291 292 293 294 295 295 296 296 296 296 296 296 296 295 295 295 294 294 295 296 297 298 298 299 299 299 299 299
281 282 283 284 285 286 286 287 287 288 289 289 290 291 292 293 294 295 296 296 296 296 296 295 295 295 295 294 294 294 294 294 295 295 296 297 297 298 298 298 298 298
282 283 284 285 285 286 287 287 288 289 290 291 292 293 294 294 295 295 295 296 296 296 296 295 295 295 294 294 294 294 294 294 294 295 296 296 297 297 297 297 296 297
283 284 285 286 287 287 288 289 290 291 292 293 293 293 293 293 293 293 294 295 296 296 296 295 295 294 294 294 293 293 293 293 294 294 295 296 296 295 295 295 295 295
287 288 288 289 290 290 291 291 291 292 292 292 291 291 291 292 293 293 294 295 295 295 295 295 294 294 293 293 293 292 292 293 293 294 294 294 294 293 293 293 293 294
289 290 290 290 290 291 291 290 290 290 290 290 290 291 292 293 294 294 295 295 295 294 293 293 292 292 292 292 292 292 292 292 292 292 292 292 291 292 292 292 292 293
287 288 288 288 288 288 289 289 289 289 290 291 292 293 293 294 294 294 293 293 293 292 291 291 291 291 291 291 291 290 290 290 290 289 289 290 290 291 291 292 292 293
286 286 286 287 287 287 288 289 289 290 291 292 292 292 292 292 292 291 291 291 291 290 290 290 290 290 289 289 288 288 287 287 287 287 287 288 289 291 292 292 292 293
286 286 286 287 287 288 288 289 290 290 290 290 290 290 290 290 290 290 290 290 290 290 289 289 289 288 288 287 286 285 285 284 284 285 285 287 288 290 291 291 292 292
286 286 287 287 288 288 289 289 289 289 289 289 289 289 289 290 290 290 289 289 289 288 288 288 288 287 286 285 284 284 283 283 283 284 285 286 287 288 289 290 290 291
286 287 287 288 288 288 288 288 288 288 288 288 289 289 288 288 288 288 288 288 287 287 287 287 287 286 285 284 283 283 283 283 283 283 284 285 286 287 288 288 289 289
288 288 289 288 288 288 288 287 287 287 288 288 288 288 288 288 287 287 286 286 286 286 286 285 285 284 283 282 282 282 282 282 282 283 283 284 285 286 287 288 289 289
290 290 289 289 288 288 288 288 288 288 288 288 288 288 288 287 287 286 286 285 285 285 284 284 283 282 281 281 281 281 281 282 282 283 284 284 285 285 286 288 288 289
290 289 289 289 289 289 289 289 289 289 290 290 289 289 288 287 287 286 285 285 284 284 283 282 282 281 281 281 281 282 282 283 283 284 284 284 285 285 286 287 288 289
289 289 289 289 290 290 290 290 291 291 291 291 291 290 289 289 288 287 287 286 285 285 284 283 283 282 282 282 283 283 284 284 285 285 286 286 286 287 287 288 288 289
288 288 288 289 289 289 290 290 291 291 292 292 292 291 291 290 290 289 289 288 288 287 287 286 286 285 285 285 286 286 286 287 287 288 288 288 289 289 289 289 289 289
288 288 287 288 289 289 290 291 291 292 292 292 292 292 291 291 291 290 290 290 289 289 289 289 288 288 288 288 288 288 288 289 289 289 289 290 290 290 289 289 289 289
287 287 287 288 289 290 291 291 291 291 291 291 291 291 291 291 291 291 291 291 291 291 291 291 290 290 289 289 289 289 289 289 289 289 289 289 289 289 289 289 289 289
286 287 288 289 290 291 291 291 292 292 292 292 292 293 293 293 293 293 292 292 292 292 292 292 291 290 290 290 289 289 289 289 289 289 289 289 289 289 289 289 289 289
287 288 289 290 290 291 291 292 292 292 293 293 293 293 293 293 293 293 293 293 292 292 292 292 291 291 290 290 290 290 289 289 289 289 289 289 289 289 290 290 290 291
287 288 288 289 289 290 291 291 292 292 292 292 292 292 292 292 292 292 292 292 292 292 292 292 292 292 291 291 291 291 291 290 290 290 291 291 291 291 292 292 292 292
288 288 289 289 289 290 291 291 291 291 291 292 292 291 291 291 291 292 292 292 292 293 293 293 293 293 292 292 292 292 292 292 292 292 292 293 293 293 293 293 293 293
288 289 289 289 290 290 291 291 291 291 291 291 291 291 291 291 291 291 291 291 291 292 292 292 292 292 292 292 292 292 292 293 293 293 293 293 293 293 293 293 293 293